Weather History for Kenosha, WI

Change the Weather History Date:

Friday, August 29, 2014

  Actual Average Record
Temperature  
Mean Temperature 76 °F -  
Max Temperature 84 °F 78 °F 97 °F (1953)
Min Temperature 69 °F 59 °F 43 °F (1965)
Cooling Degree Days 10    
Growing Degree Days 26 (Base 50)    
Moisture  
Dew Point 70 °F    
Average Humidity 85    
Maximum Humidity 93    
Minimum Humidity 74    
Precipitation  
Precipitation 0.04 in - - ()
Sea Level Pressure  
Sea Level Pressure 29.94 in    
Wind  
Wind Speed 9 mph (SSE)    
Max Wind Speed 20 mph    
Max Gust Speed 17 mph    
Visibility 8 miles    
Events Rain , Thunderstorm    
Averages and records for this station are not official NWS values.
T = Trace of Precipitation, MM = Missing Value Source: NWS Daily Summary

Daily Weather History Graph

Daily Weather History Graph

Search for Another Location

Airport:

Trip Planner

Search our weather history database for the weather conditions in past years. The results will help you decide how hot, cold, wet, or windy it might be!

Date:

Astronomy

Aug. 29, 2014 Rise Set
Actual Time 6:13 AM CDT 7:31 PM CDT
Civil Twilight 5:44 AM CDT 8:00 PM CDT
Nautical Twilight 5:09 AM CDT 8:35 PM CDT
Astronomical Twilight 4:32 AM CDT 9:12 PM CDT
Moon 10:08 AM CDT (8/29) 9:22 PM CDT (8/29)
Length of Visible Light 14h 15m
Length of Day
13h 17m
Waxing Crescent, 15% of the Moon is Illuminated
Aug 29
Waxing Crescent
Sep 2
First Quarter
Sep 8
Full
Sep 15
Last Quarter
Sep 24
New

Hourly Weather History & Observations

Time (CDT) Temp. Heat Index Dew Point Humidity Pressure Visibility Wind Dir Wind Speed Gust Speed Precip Events Conditions
12:53 AM 69.1 °F - 64.9 °F 87% 30.01 in 10.0 mi ESE 8.1 mph - N/A   Clear
1:53 AM 69.1 °F - 66.9 °F 93% 29.99 in 10.0 mi SE 4.6 mph - N/A   Clear
2:53 AM 70.0 °F - 68.0 °F 93% 29.97 in 9.0 mi SE 5.8 mph - N/A   Clear
3:53 AM 71.1 °F - 66.9 °F 87% 29.97 in 10.0 mi SSE 10.4 mph - N/A   Partly Cloudy
4:53 AM 71.1 °F - 66.0 °F 84% 29.97 in 10.0 mi SSE 6.9 mph - N/A   Clear
5:53 AM 71.1 °F - 66.0 °F 84% 29.97 in 10.0 mi South 6.9 mph - N/A   Clear
6:53 AM 70.0 °F - 66.0 °F 87% 29.97 in 10.0 mi SSE 8.1 mph - N/A   Mostly Cloudy
7:53 AM 71.1 °F - 66.9 °F 87% 29.98 in 10.0 mi South 6.9 mph - N/A   Overcast
8:53 AM 71.1 °F - 66.9 °F 87% 29.99 in 4.0 mi SSW 6.9 mph - 0.01 in Rain Rain
9:05 AM 71.1 °F - 68.0 °F 90% 30.00 in 5.0 mi SSW 6.9 mph - 0.02 in Rain , Thunderstorm Light Rain
9:16 AM 71.1 °F - 68.0 °F 90% 30.01 in 6.0 mi SSW 10.4 mph - 0.02 in Rain , Thunderstorm Light Thunderstorms and Rain
9:22 AM 70.0 °F - 68.0 °F 93% 30.00 in 2.5 mi SSW 10.4 mph 17.3 mph 0.07 in Rain , Thunderstorm Light Thunderstorms and Rain
10:00 AM 70.0 °F - 68.0 °F 93% 29.99 in 10.0 mi South 10.4 mph - 0.00 in Thunderstorm Overcast
10:44 AM 72.0 °F - 70.0 °F 93% 29.99 in 5.0 mi SSE 5.8 mph - 0.03 in Thunderstorm Overcast
10:53 AM 73.0 °F - 71.1 °F 93% 29.98 in 5.0 mi SE 6.9 mph - 0.03 in   Mostly Cloudy
11:53 AM 79.0 °F - 73.0 °F 82% 29.95 in 9.0 mi South 9.2 mph - N/A   Partly Cloudy
12:53 PM 81.0 °F 85.8 °F 73.0 °F 77% 29.94 in 10.0 mi SSE 8.1 mph - N/A   Scattered Clouds
1:03 PM 81.0 °F 85.8 °F 73.0 °F 77% 29.94 in 10.0 mi SSE 10.4 mph - N/A   Mostly Cloudy
1:11 PM 82.0 °F 87.9 °F 73.9 °F 76% 29.94 in 10.0 mi SSE 10.4 mph - N/A   Partly Cloudy
1:53 PM 82.0 °F 87.4 °F 73.0 °F 74% 29.92 in 9.0 mi South 10.4 mph - N/A   Clear
3:53 PM 81.0 °F 85.8 °F 73.0 °F 77% 29.87 in 9.0 mi SE 10.4 mph - N/A   Clear
4:53 PM 81.0 °F 85.8 °F 73.0 °F 77% 29.86 in 9.0 mi SSE 12.7 mph - N/A   Clear
5:53 PM 80.1 °F 84.2 °F 73.0 °F 79% 29.86 in 8.0 mi SSE 12.7 mph - N/A   Clear
6:53 PM 78.1 °F - 70.0 °F 76% 29.86 in 7.0 mi SSE 16.1 mph - N/A   Clear
7:53 PM 77.0 °F - 72.0 °F 84% 29.87 in 8.0 mi SSE 19.6 mph - N/A   Clear
8:53 PM 75.9 °F - 72.0 °F 87% 29.87 in 8.0 mi South 10.4 mph - N/A   Clear
10:33 PM 75.9 °F - 71.1 °F 85% 29.87 in 10.0 mi SSE 12.7 mph - N/A Thunderstorm Clear
10:48 PM 75.2 °F - 71.6 °F 89% 29.87 in 10.0 mi South 8.1 mph - N/A   Partly Cloudy
10:53 PM 75.0 °F - 71.1 °F 87% 29.86 in 10.0 mi WSW 6.9 mph - N/A   Partly Cloudy
11:53 PM 75.0 °F - 70.0 °F 84% 29.84 in 10.0 mi SSE 8.1 mph - N/A   Clear